Theta_e
296 297 297 295 295 296 294 296 291 294 295 299 302 303 303 304 305 305 307 310 314 313 314 313 312 311 315 316 316 316 314 312 310 310 309 308 306 304 302 300 299 300 298 297
292 296 296 293 295 296 296 296 296 297 296 303 303 304 303 304 304 304 306 309 310 309 308 308 308 309 311 312 315 315 313 311 311 310 309 306 304 303 302 301 300 299 298 297
286 293 292 287 292 294 296 297 296 290 297 300 299 299 299 301 302 299 302 306 307 307 307 307 308 306 308 309 314 315 313 313 311 309 307 305 305 303 302 301 301 298 296 296
285 289 280 292 298 297 295 296 295 295 294 295 294 295 297 298 297 294 295 297 299 301 304 305 306 306 306 306 308 310 310 310 311 308 305 305 303 300 301 301 294 293 294 292
282 283 287 290 293 292 291 291 293 292 292 293 294 295 295 297 297 296 295 296 299 299 299 302 304 304 304 305 305 305 306 308 307 306 304 304 296 292 294 297 292 289 289 289
283 279 277 288 293 295 294 284 292 291 290 290 291 286 293 297 296 296 297 297 295 297 300 300 301 303 303 302 302 301 304 306 307 300 299 296 296 292 288 291 288 290 287 287
282 280 283 291 293 293 281 284 292 292 291 290 288 290 294 297 295 296 295 295 296 297 294 298 300 302 301 300 300 297 300 300 304 304 301 297 294 291 289 288 287 287 286 286
282 280 277 293 291 285 290 292 291 291 292 291 292 292 293 293 293 294 294 295 295 294 294 297 302 303 301 300 301 301 299 299 300 299 298 295 294 289 288 287 287 286 285 285
286 285 292 293 290 292 293 291 291 291 291 291 291 291 293 291 292 293 293 293 294 294 293 295 298 299 298 298 300 299 298 296 295 295 295 293 291 289 288 288 287 286 285 285
285 287 288 290 291 292 292 291 291 292 291 292 289 289 290 293 293 293 293 293 294 295 294 293 295 297 298 300 299 296 295 293 293 293 292 293 292 290 290 289 287 287 286 285
286 288 289 289 290 291 291 292 291 292 292 292 292 292 293 292 293 294 294 294 294 293 293 293 295 295 295 299 298 297 294 292 292 293 292 291 291 291 290 291 291 289 288 287
283 288 288 289 291 292 290 290 291 292 292 294 294 293 294 293 294 294 294 295 294 294 293 293 294 294 295 298 297 295 292 291 292 292 292 291 291 290 291 291 290 291 289 289
287 290 290 292 291 291 290 291 293 293 293 292 294 294 294 294 294 293 294 295 294 294 295 294 294 293 295 295 293 290 291 290 290 290 290 290 289 289 287 288 289 289 288 288
291 290 288 290 289 292 293 294 295 294 294 293 293 293 293 292 292 292 293 295 295 295 295 295 293 292 294 296 294 291 291 288 290 290 290 290 289 289 288 286 285 285 286 287
290 291 290 291 291 292 294 294 292 291 291 291 292 291 291 289 288 289 291 293 294 295 295 295 294 293 294 294 292 291 290 289 290 290 289 289 289 288 287 286 285 283 284 284
290 290 290 290 291 292 292 291 289 288 288 288 289 289 288 288 288 289 289 290 289 288 291 290 290 293 292 293 291 290 290 288 288 288 288 288 287 287 286 286 284 283 283 283
288 288 289 290 291 290 290 288 287 286 286 286 287 288 287 287 286 287 287 288 288 287 288 288 288 291 289 292 291 290 289 288 287 287 286 287 287 286 286 286 285 284 283 284
293 293 292 291 290 289 288 288 287 287 287 287 286 285 284 284 283 284 286 286 286 286 287 287 288 289 291 291 291 289 286 286 285 285 285 285 287 287 287 286 285 284 284 283
292 291 292 291 290 288 287 287 287 287 285 286 285 284 284 284 284 284 285 285 284 284 285 287 286 287 289 290 289 288 287 286 285 285 285 286 287 287 287 287 286 286 285 282
292 291 290 289 289 287 286 286 286 286 286 286 285 284 283 283 284 284 285 284 285 285 285 285 285 286 288 289 287 288 287 286 286 285 286 286 286 286 286 286 286 286 285 283
290 289 286 285 284 284 286 286 286 285 286 286 285 284 283 284 284 284 284 283 285 285 285 286 287 287 289 288 288 288 287 286 286 286 285 286 286 286 286 286 286 286 284 284
288 287 285 285 285 285 286 287 288 285 284 286 285 285 285 284 284 284 286 284 285 285 285 285 286 286 288 287 289 287 287 287 287 286 285 285 286 286 286 286 285 285 285 285
287 288 287 286 285 286 287 288 285 285 284 285 285 285 285 284 284 282 281 285 285 285 284 285 285 285 285 287 287 287 286 287 286 286 286 286 286 286 285 285 285 285 285 284
288 288 287 288 289 288 287 288 288 288 285 285 285 285 285 284 284 285 285 285 285 284 284 284 285 285 285 285 285 286 286 286 286 286 286 286 285 285 285 285 285 285 285 285
289 288 288 288 288 288 289 289 288 287 286 286 286 287 287 286 285 285 285 285 285 285 284 285 285 285 285 285 285 285 285 285 285 285 285 285 285 285 285 285 285 285 285 285
288 288 289 289 289 289 289 288 286 285 285 285 285 287 287 287 288 287 286 285 285 285 284 285 284 285 285 285 285 285 285 284 285 285 285 285 285 285 284 284 284 284 285 285
290 288 289 288 289 288 286 285 284 283 282 283 282 285 287 287 285 286 285 285 285 285 285 285 285 285 285 285 285 285 285 285 285 285 285 285 285 285 284 284 284 284 284 284
Wind_Speed
20 22 22 17 15 20 18 17 18 22 17 24 16 17 12 15 13 7 3 11 2 3 3 3 7 6 11 6 13 15 15 14 13 12 12 12 11 10 10 11 12 12 9 8
20 23 20 19 23 25 22 20 20 18 23 18 21 20 20 14 13 5 7 2 4 2 3 5 7 7 7 6 7 6 12 15 14 14 13 14 14 12 12 12 11 12 10 9
17 18 17 15 25 25 25 25 20 20 17 16 16 16 17 14 16 18 16 12 9 8 6 2 3 5 6 8 3 4 9 12 15 15 12 12 14 15 13 12 12 10 9 10
8 12 11 14 19 18 20 11 12 8 8 10 9 11 10 13 13 14 14 12 9 10 9 9 6 3 5 6 7 5 5 7 9 12 13 14 14 12 13 12 9 8 8 9
5 10 10 12 4 4 6 1 3 3 2 5 9 11 7 8 10 9 8 6 6 7 7 8 9 8 8 12 11 8 8 12 10 12 14 15 12 12 9 10 9 7 9 9
5 5 8 6 9 6 2 6 3 3 3 6 8 6 2 9 10 9 8 5 5 8 9 9 8 9 8 11 12 12 8 12 16 12 12 13 15 14 6 11 10 10 9 6
8 6 4 10 7 2 4 2 3 6 7 8 8 7 11 8 10 9 10 12 12 10 7 10 12 9 9 9 12 8 7 9 13 14 17 13 13 10 11 11 11 10 10 7
7 7 11 12 3 4 5 4 6 7 10 11 12 11 8 11 11 11 13 13 14 14 14 10 10 8 8 10 8 11 7 8 12 14 11 10 13 11 12 13 13 11 10 9
5 2 3 3 0 5 8 9 10 12 13 13 10 8 5 8 10 12 14 15 15 14 16 18 13 9 7 6 5 6 7 8 9 12 12 13 14 12 11 12 11 11 11 10
5 6 7 8 8 10 12 12 12 12 14 14 12 8 9 13 14 15 15 14 14 14 15 16 14 11 9 5 2 3 7 7 8 11 12 13 11 11 11 13 12 11 11 10
8 11 10 12 13 12 12 11 13 15 15 16 17 17 18 17 18 16 16 15 14 15 14 15 14 12 13 4 5 6 7 7 9 9 13 13 13 14 12 12 14 16 13 12
8 11 10 13 12 14 11 14 15 17 16 14 17 18 18 15 15 17 17 17 15 16 15 17 16 11 11 4 4 7 8 7 8 9 10 10 12 10 10 10 12 14 16 14
9 10 11 11 14 14 14 16 16 12 13 16 16 15 17 16 15 19 18 18 18 16 16 17 15 13 11 7 7 7 10 8 7 9 10 11 11 13 12 9 14 14 17 18
8 10 12 15 12 12 12 12 12 12 12 12 15 16 16 15 16 17 18 18 19 13 16 17 13 15 11 11 11 10 10 9 9 9 10 10 11 11 11 13 13 9 12 14
15 14 14 13 12 11 11 12 11 13 14 13 13 14 14 17 17 17 18 19 18 17 18 14 11 12 11 12 11 10 9 8 10 9 10 11 11 11 11 11 10 9 9 8
13 14 12 12 9 9 10 12 12 12 12 12 12 13 13 16 16 17 17 16 15 14 16 15 12 14 8 11 12 9 10 11 10 9 9 11 11 12 12 12 11 11 10 10
13 12 10 7 6 8 9 8 8 10 10 12 13 12 14 15 16 16 16 15 15 16 17 16 16 11 5 10 12 9 8 8 12 8 9 10 11 12 12 11 11 11 10 11
3 5 4 3 5 6 7 7 7 7 7 9 9 11 12 13 16 17 16 16 16 16 17 18 18 16 11 12 12 9 8 8 7 7 6 9 10 10 11 11 11 11 10 12
4 3 1 3 3 4 5 6 7 6 6 6 9 12 12 14 16 17 16 17 18 18 16 15 15 18 17 16 13 9 9 10 8 7 6 7 8 8 9 10 10 10 11 11
3 1 1 1 0 3 6 4 5 7 8 7 8 10 14 14 15 15 16 16 16 11 18 21 17 15 17 16 17 10 11 11 10 8 8 8 5 6 8 10 10 10 11 11
3 2 5 2 2 4 4 4 6 8 9 6 8 10 12 13 14 16 16 13 17 17 19 19 7 5 9 13 14 11 11 11 10 9 10 8 7 7 8 8 9 10 11 10
3 4 4 4 5 5 5 6 7 5 6 5 7 10 10 11 12 13 12 12 13 20 13 9 5 2 9 16 10 11 10 10 9 9 9 8 8 8 8 9 9 8 10 10
5 4 4 4 5 6 7 7 6 7 5 4 6 7 7 7 7 10 13 15 12 15 10 7 3 3 10 7 7 10 11 10 9 9 9 8 8 7 7 8 8 8 9 9
4 5 5 4 5 7 9 4 2 3 3 2 3 4 4 5 6 5 8 13 15 14 10 9 6 6 4 3 5 8 8 8 8 9 9 10 7 6 6 7 8 8 7 9
5 5 6 7 8 6 3 3 5 4 7 6 7 4 4 4 4 7 7 8 12 10 8 11 12 11 6 5 5 5 5 7 7 8 8 8 8 7 7 7 7 7 7 8
7 6 6 5 3 4 2 3 4 6 6 7 7 4 4 4 5 6 5 8 8 9 6 6 6 5 5 5 6 6 6 7 7 6 7 7 7 7 7 7 7 7 7 8
8 5 2 4 2 5 5 5 4 5 6 4 7 7 6 4 6 7 8 7 6 6 6 4 5 5 4 4 4 5 5 5 6 6 5 4 5 5 6 7 7 6 7 7
Wind_Direction
252 259 265 273 254 252 247 257 243 263 264 275 291 292 298 293 285 315 46 349 267 208 96 34 72 358 338 203 182 174 168 174 175 169 169 161 152 158 155 158 165 164 161 154
263 261 269 275 263 264 271 260 254 248 257 261 266 275 277 298 302 282 284 116 118 114 64 54 27 16 19 19 352 339 159 174 174 173 167 167 161 167 175 167 170 164 166 156
251 252 258 261 249 259 265 262 268 261 282 321 319 340 345 356 37 38 35 32 5 19 5 13 302 10 327 346 339 246 234 188 174 167 163 167 164 160 177 174 170 166 156 152
249 262 230 258 252 253 256 255 338 307 9 3 359 340 15 33 49 38 29 21 6 345 334 320 317 316 318 317 320 293 278 246 163 176 164 176 162 170 172 172 164 158 154 143
216 223 303 298 349 355 349 137 57 15 17 341 328 307 101 45 33 23 14 354 343 317 307 299 291 287 282 282 287 250 221 226 194 182 184 177 165 168 174 154 150 149 149 144
163 229 220 104 91 50 307 245 110 34 355 339 341 325 23 16 344 331 326 324 275 274 276 276 274 271 261 272 268 257 223 206 183 178 187 186 173 169 157 149 149 145 137 127
227 248 263 272 127 90 228 31 331 314 310 308 300 291 301 292 286 289 297 297 291 277 247 260 268 254 264 266 264 252 242 213 185 191 188 183 164 154 144 143 145 140 140 143
227 249 259 118 138 234 11 321 302 300 296 290 285 286 290 295 295 299 295 297 300 298 290 242 241 235 234 260 274 284 259 205 191 181 173 161 167 148 151 147 149 148 151 153
194 180 130 112 246 277 302 305 310 297 288 295 307 304 293 286 282 281 278 278 278 272 275 283 262 241 247 225 271 267 237 204 184 173 163 156 161 163 157 154 161 164 165 161
314 280 294 304 314 308 299 292 298 324 318 309 299 274 258 270 269 263 261 267 272 268 264 270 282 309 265 164 236 190 216 204 178 174 164 165 166 167 177 170 167 174 169 165
285 277 294 295 293 290 293 319 318 305 296 288 287 286 285 281 282 284 278 267 260 269 277 280 268 275 295 202 159 223 225 205 191 185 179 173 179 180 181 198 178 176 178 167
248 255 261 267 271 283 315 310 296 288 293 313 311 302 302 307 311 306 298 284 261 252 257 263 265 255 265 289 185 229 224 204 203 193 184 178 176 168 178 180 170 173 165 165
263 267 272 294 300 298 291 283 290 313 317 314 322 328 319 307 313 311 297 296 291 265 268 254 249 245 236 186 196 202 234 206 197 199 184 178 174 170 155 149 146 155 156 156
251 256 264 261 270 278 283 291 309 301 309 314 322 318 316 309 310 314 310 306 299 290 281 292 254 245 216 192 193 207 222 203 199 194 189 183 177 171 160 161 164 160 159 156
264 263 266 275 275 282 297 293 306 317 316 320 313 306 318 321 314 311 309 306 310 312 308 288 284 276 188 185 191 201 208 209 197 194 188 179 169 168 157 153 155 148 138 145
257 256 248 250 269 289 303 335 333 317 305 301 309 316 320 310 307 307 306 307 308 303 299 300 294 289 220 193 188 196 201 202 189 191 179 176 172 163 157 156 152 154 161 164
255 249 244 288 313 317 320 331 299 293 299 306 308 320 319 311 304 302 304 303 295 288 286 286 282 287 223 202 191 190 182 185 184 191 182 181 173 168 157 154 154 162 163 164
4 49 95 209 264 301 305 295 286 294 294 310 318 313 307 307 305 306 304 303 293 285 271 268 265 260 239 212 196 180 167 174 178 176 169 172 176 153 153 147 153 155 154 160
144 177 242 348 317 294 287 285 287 307 300 299 313 309 306 301 307 308 307 300 302 292 291 289 270 249 231 207 186 176 166 163 161 157 157 153 145 154 146 149 150 154 152 160
190 185 161 224 201 253 281 307 303 295 286 288 293 306 315 312 317 310 308 303 301 302 296 293 275 242 212 191 171 167 166 164 159 156 151 132 140 153 150 161 148 159 160 164
352 337 81 69 287 274 263 266 276 278 284 272 287 300 310 310 317 319 311 315 322 318 314 313 287 220 206 161 169 161 161 162 163 157 138 140 146 159 163 156 162 168 161 164
237 170 192 218 248 258 260 251 255 273 274 280 287 300 294 303 315 319 312 318 320 323 320 322 343 92 148 158 159 155 151 157 159 143 138 142 159 170 158 166 170 174 161 161
207 174 192 207 236 259 261 256 236 240 249 263 288 298 302 304 314 320 329 330 327 329 329 324 14 106 146 152 148 150 148 159 142 137 143 146 159 166 172 170 168 174 166 163
163 192 225 223 237 258 255 243 240 302 177 293 315 289 287 324 323 327 319 322 333 344 352 5 25 73 51 97 127 135 144 134 136 136 135 137 152 154 171 163 173 178 166 163
201 198 218 237 244 263 303 3 339 342 358 5 325 347 335 296 296 318 327 339 343 352 357 12 29 39 41 53 73 95 122 124 135 136 137 139 145 163 169 164 177 173 169 173
219 219 229 226 267 272 328 16 359 2 341 338 328 342 309 308 326 325 332 345 355 354 2 6 11 26 41 62 75 83 92 105 114 124 133 140 161 179 167 163 173 170 177 179
227 228 227 244 275 72 48 9 349 327 320 309 317 313 318 339 342 337 349 352 352 1 359 6 8 15 29 52 71 86 97 105 110 120 116 140 168 173 172 171 171 170 180 174